| time (UTC) | temp F | wind direction | speed knots | gust knots | rain 1hr in | rain 24hr in | rain mn in | humidity % | barometer mb |
| 20260831122248 | 64 | 298 | 5.2 | 11.3 | 0.00 | 0.07 | 0.00 | 67 | 1015.4 |
| 20260831121746 | 64 | 308 | 6.1 | 11.3 | 0.00 | 0.07 | 0.00 | 67 | 1015.4 |
| 20260831120747 | 64 | 278 | 8.7 | 15.6 | 0.00 | 0.07 | 0.00 | 67 | 1015.3 |
| 20260831120246 | 64 | 281 | 4.3 | 12.2 | 0.00 | 0.07 | 0.00 | 69 | 1015.3 |
| 20260831115748 | 64 | 304 | 5.2 | 13.0 | 0.00 | 0.07 | 0.00 | 68 | 1015.2 |
| 20260831115247 | 64 | 294 | 7.0 | 12.2 | 0.00 | 0.07 | 0.00 | 69 | 1015.2 |
| 20260831114746 | 64 | 308 | 6.1 | 11.3 | 0.00 | 0.07 | 0.00 | 69 | 1015.2 |
| 20260831114246 | 64 | 293 | 7.0 | 13.0 | 0.00 | 0.07 | 0.00 | 70 | 1015.1 |
| 20260831113746 | 64 | 291 | 6.1 | 11.3 | 0.00 | 0.07 | 0.00 | 69 | 1015.0 |
| 20260831113247 | 64 | 289 | 3.5 | 10.4 | 0.00 | 0.07 | 0.00 | 71 | 1015.0 |
| 20260831112748 | 63 | 285 | 4.3 | 8.7 | 0.00 | 0.07 | 0.00 | 68 | 1015.0 |
| 20260831112246 | 63 | 287 | 5.2 | 12.2 | 0.00 | 0.07 | 0.00 | 67 | 1014.8 |
| 20260831111747 | 63 | 293 | 5.2 | 10.4 | 0.00 | 0.07 | 0.00 | 67 | 1014.7 |
| 20260831111247 | 63 | 291 | 5.2 | 12.2 | 0.00 | 0.07 | 0.00 | 66 | 1014.8 |
| 20260831110747 | 63 | 284 | 4.3 | 7.0 | 0.00 | 0.07 | 0.00 | 67 | 1014.7 |
| 20260831110247 | 63 | 313 | 6.1 | 12.2 | 0.00 | 0.07 | 0.00 | 67 | 1014.6 |
| 20260831105747 | 62 | 296 | 6.1 | 10.4 | 0.00 | 0.07 | 0.00 | 68 | 1014.7 |
| 20260831105247 | 63 | 302 | 6.1 | 13.0 | 0.00 | 0.07 | 0.00 | 69 | 1014.6 |
| 20260831104747 | 63 | 288 | 5.2 | 12.2 | 0.00 | 0.07 | 0.00 | 69 | 1014.5 |
| 20260831104247 | 62 | 305 | 7.8 | 13.0 | 0.00 | 0.07 | 0.00 | 69 | 1014.4 |
| 20260831103747 | 62 | 289 | 8.7 | 13.9 | 0.00 | 0.07 | 0.00 | 69 | 1014.2 |
| 20260831103248 | 63 | 285 | 7.0 | 11.3 | 0.00 | 0.07 | 0.00 | 69 | 1014.3 |
| 20260831102747 | 63 | 295 | 6.1 | 12.2 | 0.00 | 0.07 | 0.00 | 71 | 1014.3 |
| 20260831102249 | 63 | 315 | 8.7 | 13.9 | 0.00 | 0.07 | 0.00 | 71 | 1014.2 |
| 20260831101748 | 62 | 307 | 6.1 | 11.3 | 0.00 | 0.07 | 0.00 | 73 | 1014.0 |
| 20260831101247 | 62 | 293 | 5.2 | 12.2 | 0.00 | 0.07 | 0.00 | 73 | 1014.1 |
| 20260831100748 | 62 | 295 | 5.2 | 11.3 | 0.00 | 0.09 | 0.00 | 73 | 1014.1 |
| 20260831100249 | 62 | 315 | 4.3 | 8.7 | 0.00 | 0.09 | 0.00 | 74 | 1014.1 |
| 20260831095748 | 62 | 305 | 7.0 | 12.2 | 0.00 | 0.10 | 0.00 | 73 | 1014.1 |
| 20260831095248 | 62 | 298 | 7.0 | 13.0 | 0.00 | 0.13 | 0.00 | 73 | 1013.9 |
| 20260831094747 | 62 | 310 | 6.1 | 10.4 | 0.00 | 0.13 | 0.00 | 74 | 1013.9 |
| 20260831093747 | 62 | 287 | 4.3 | 10.4 | 0.00 | 0.13 | 0.00 | 76 | 1013.8 |
| 20260831093249 | 61 | 289 | 5.2 | 10.4 | 0.00 | 0.13 | 0.00 | 77 | 1013.8 |
| 20260831092248 | 61 | 306 | 5.2 | 8.7 | 0.00 | 0.14 | 0.00 | 78 | 1013.8 |
| 20260831091748 | 61 | 293 | 2.6 | 8.7 | 0.00 | 0.14 | 0.00 | 79 | 1013.8 |
| 20260831091249 | 61 | 298 | 4.3 | 7.0 | 0.00 | 0.14 | 0.00 | 80 | 1013.7 |
| 20260831090748 | 61 | 299 | 5.2 | 7.0 | 0.00 | 0.15 | 0.00 | 80 | 1013.7 |
| 20260831090248 | 60 | 279 | 5.2 | 7.8 | 0.00 | 0.15 | 0.00 | 80 | 1013.6 |
| 20260831085249 | 60 | 311 | 5.2 | 12.2 | 0.00 | 0.15 | 0.00 | 81 | 1013.4 |
| 20260831084748 | 60 | 296 | 6.1 | 11.3 | 0.00 | 0.15 | 0.00 | 82 | 1013.3 |
| 20260831084248 | 60 | 291 | 6.1 | 8.7 | 0.00 | 0.15 | 0.00 | 82 | 1013.1 |
| 20260831083748 | 60 | 297 | 5.2 | 11.3 | 0.00 | 0.16 | 0.00 | 83 | 1013.0 |
| 20260831083248 | 60 | 304 | 6.1 | 12.2 | 0.00 | 0.16 | 0.00 | 82 | 1012.9 |
| 20260831082748 | 60 | 306 | 7.0 | 13.9 | 0.00 | 0.16 | 0.00 | 83 | 1012.9 |
| 20260831082249 | 59 | 292 | 6.1 | 11.3 | 0.00 | 0.16 | 0.00 | 82 | 1012.9 |
| 20260831081749 | 60 | 301 | 4.3 | 8.7 | 0.00 | 0.16 | 0.00 | 83 | 1012.9 |
| 20260831080749 | 59 | 280 | 5.2 | 10.4 | 0.00 | 0.16 | 0.00 | 83 | 1012.8 |
| 20260831080249 | 59 | 276 | 4.3 | 8.7 | 0.00 | 0.17 | 0.00 | 83 | 1012.7 |
| 20260831075250 | 59 | 284 | 5.2 | 10.4 | 0.00 | 0.17 | 0.00 | 83 | 1012.6 |
| 20260831074748 | 59 | 293 | 4.3 | 7.0 | 0.00 | 0.19 | 0.00 | 84 | 1012.5 |
| 20260831074248 | 59 | 294 | 1.7 | 5.2 | 0.00 | 0.19 | 0.00 | 85 | 1012.4 |
| 20260831073249 | 59 | 273 | 1.7 | 5.2 | 0.00 | 0.20 | 0.00 | 87 | 1012.5 |
| 20260831072749 | 58 | 309 | 4.3 | 6.1 | 0.00 | 0.20 | 0.00 | 87 | 1012.3 |
| 20260831072248 | 58 | 305 | 2.6 | 7.8 | 0.00 | 0.20 | 0.00 | 88 | 1012.1 |
| 20260831071749 | 58 | 318 | 4.3 | 8.7 | 0.00 | 0.20 | 0.00 | 89 | 1011.9 |
| 20260831070749 | 57 | 300 | 1.7 | 5.2 | 0.00 | 0.20 | 0.00 | 92 | 1011.8 |
| 20260831065749 | 57 | 288 | 1.7 | 5.2 | 0.00 | 0.20 | 0.00 | 93 | 1011.6 |
| 20260831064749 | 56 | 294 | 1.7 | 5.2 | 0.00 | 0.20 | 0.00 | 93 | 1011.5 |
| 20260831064249 | 57 | 291 | 3.5 | 7.0 | 0.00 | 0.20 | 0.00 | 93 | 1011.3 |
| 20260831063752 | 57 | 312 | 4.3 | 7.8 | 0.00 | 0.20 | 0.00 | 93 | 1011.2 |
| 20260831063253 | 57 | 308 | 5.2 | 11.3 | 0.00 | 0.20 | 0.00 | 93 | 1011.1 |
| 20260831062805 | 57 | 305 | 6.1 | 10.4 | 0.00 | 0.20 | 0.00 | 92 | 1011.0 |
| 20260831062250 | 57 | 310 | 6.1 | 12.2 | 0.00 | 0.20 | 0.00 | 92 | 1011.0 |
| 20260831061755 | 57 | 298 | 6.1 | 8.7 | 0.00 | 0.20 | 0.00 | 92 | 1011.0 |
| 20260831061251 | 57 | 297 | 4.3 | 11.3 | 0.00 | 0.20 | 0.00 | 91 | 1011.0 |
| 20260831060749 | 58 | 303 | 6.1 | 13.0 | 0.00 | 0.20 | 0.00 | 90 | 1010.9 |
| 20260831060251 | 58 | 293 | 4.3 | 10.4 | 0.00 | 0.20 | 0.00 | 90 | 1010.7 |
| 20260831055750 | 58 | 300 | 4.3 | 7.8 | 0.00 | 0.20 | 0.00 | 91 | 1010.5 |
| 20260831055250 | 58 | 291 | 4.3 | 12.2 | 0.00 | 0.21 | 0.00 | 91 | 1010.4 |
| 20260831054249 | 58 | 279 | 2.6 | 5.2 | 0.00 | 0.22 | 0.00 | 91 | 1010.2 |
| 20260831053749 | 58 | 291 | 1.7 | 6.1 | 0.00 | 0.22 | 0.00 | 91 | 1010.0 |
| 20260831052750 | 58 | 314 | 4.3 | 7.8 | 0.00 | 0.22 | 0.00 | 92 | 1009.6 |
| 20260831052251 | 58 | 313 | 3.5 | 8.7 | 0.00 | 0.22 | 0.00 | 92 | 1009.6 |
| 20260831051750 | 58 | 300 | 2.6 | 6.1 | 0.00 | 0.23 | 0.00 | 92 | 1009.6 |
| 20260831051250 | 58 | 290 | 1.7 | 7.0 | 0.00 | 0.24 | 0.00 | 93 | 1009.6 |
| 20260831050751 | 58 | 293 | 1.7 | 4.3 | 0.00 | 0.24 | 0.00 | 93 | 1009.4 |
| 20260831045250 | 58 | 304 | 2.6 | 7.0 | 0.00 | 0.25 | 0.00 | 93 | 1009.2 |
| 20260831044750 | 58 | 302 | 1.7 | 6.1 | 0.00 | 0.25 | 0.00 | 92 | 1009.3 |
| 20260831043252 | 58 | 295 | 3.5 | 10.4 | 0.00 | 0.25 | 0.00 | 91 | 1009.1 |
| 20260831042750 | 59 | 303 | 8.7 | 13.9 | 0.00 | 0.25 | 0.00 | 91 | 1009.0 |
| 20260831042251 | 59 | 309 | 5.2 | 11.3 | 0.00 | 0.25 | 0.00 | 91 | 1009.0 |
| 20260831041750 | 59 | 297 | 3.5 | 7.8 | 0.00 | 0.25 | 0.00 | 92 | 1008.9 |
| 20260831041252 | 59 | 270 | 1.7 | 5.2 | 0.00 | 0.25 | 0.00 | 92 | 1008.8 |
| 20260831040251 | 59 | 282 | 2.6 | 5.2 | 0.00 | 0.26 | 0.00 | 92 | 1008.6 |
| 20260831035751 | 59 | 288 | 1.7 | 5.2 | 0.00 | 0.26 | 0.00 | 92 | 1008.5 |
| 20260831035251 | 59 | 289 | 2.6 | 7.8 | 0.00 | 0.26 | 0.00 | 92 | 1008.5 |
| 20260831034751 | 59 | 298 | 1.7 | 6.1 | 0.00 | 0.26 | 0.00 | 92 | 1008.4 |
| 20260831034250 | 58 | 283 | 1.7 | 5.2 | 0.00 | 0.26 | 0.00 | 92 | 1008.3 |
| 20260831033752 | 58 | 311 | 0.9 | 4.3 | 0.00 | 0.26 | 0.00 | 93 | 1008.2 |
| 20260831033252 | 58 | 279 | 1.7 | 4.3 | 0.00 | 0.26 | 0.00 | 93 | 1008.1 |
| 20260831032751 | 58 | 271 | 0.0 | 2.6 | 0.00 | 0.26 | 0.00 | 93 | 1008.0 |
| 20260831032251 | 58 | 301 | 0.0 | 0.9 | 0.00 | 0.26 | 0.00 | 93 | 1008.0 |
| 20260831031751 | 58 | 273 | 0.9 | 2.6 | 0.00 | 0.26 | 0.00 | 93 | 1007.8 |
| 20260831031251 | 58 | 286 | 0.0 | 0.9 | 0.00 | 0.26 | 0.00 | 93 | 1007.8 |
| 20260831030751 | 58 | 265 | 0.0 | 1.7 | 0.00 | 0.26 | 0.00 | 93 | 1007.7 |
| 20260831030251 | 58 | 292 | 0.9 | 2.6 | 0.00 | 0.26 | 0.00 | 93 | 1007.6 |
| 20260831025751 | 58 | 292 | 0.9 | 4.3 | 0.00 | 0.26 | 0.00 | 93 | 1007.5 |
| 20260831025250 | 58 | 284 | 1.7 | 5.2 | 0.00 | 0.28 | 0.00 | 93 | 1007.4 |
| 20260831024751 | 58 | 298 | 1.7 | 4.3 | 0.00 | 0.28 | 0.00 | 93 | 1007.4 |
| 20260831024252 | 58 | 277 | 1.7 | 5.2 | 0.00 | 0.28 | 0.00 | 93 | 1007.3 |
| 20260831023752 | 58 | 293 | 1.7 | 5.2 | 0.00 | 0.28 | 0.00 | 92 | 1007.2 |
| 20260831023252 | 58 | 272 | 1.7 | 4.3 | 0.00 | 0.28 | 0.00 | 93 | 1007.1 |
| 20260831022752 | 58 | 280 | 2.6 | 5.2 | 0.00 | 0.28 | 0.00 | 93 | 1007.0 |
| 20260831022252 | 58 | 294 | 2.6 | 5.2 | 0.00 | 0.28 | 0.00 | 93 | 1007.0 |
| 20260831021752 | 58 | 273 | 1.7 | 4.3 | 0.00 | 0.28 | 0.00 | 93 | 1006.8 |
| 20260831021253 | 58 | 282 | 1.7 | 5.2 | 0.00 | 0.28 | 0.00 | 93 | 1006.8 |
| 20260831020752 | 58 | 283 | 1.7 | 4.3 | 0.00 | 0.28 | 0.00 | 93 | 1006.6 |
| 20260831020251 | 58 | 283 | 1.7 | 4.3 | 0.00 | 0.28 | 0.00 | 92 | 1006.6 |
| 20260831015752 | 58 | 290 | 1.7 | 4.3 | 0.00 | 0.28 | 0.00 | 92 | 1006.5 |
| 20260831015252 | 58 | 289 | 2.6 | 5.2 | 0.00 | 0.28 | 0.00 | 92 | 1006.4 |
| 20260831014752 | 58 | 286 | 1.7 | 5.2 | 0.00 | 0.28 | 0.00 | 92 | 1006.4 |
| 20260831014251 | 58 | 285 | 1.7 | 5.2 | 0.00 | 0.28 | 0.00 | 92 | 1006.3 |
| 20260831013252 | 58 | 284 | 2.6 | 6.1 | 0.00 | 0.28 | 0.00 | 92 | 1006.2 |
| 20260831012753 | 58 | 267 | 1.7 | 5.2 | 0.00 | 0.28 | 0.00 | 91 | 1006.1 |
| 20260831011752 | 58 | 277 | 3.5 | 7.0 | 0.00 | 0.28 | 0.00 | 92 | 1005.9 |
| 20260831011252 | 58 | 284 | 3.5 | 7.8 | 0.00 | 0.28 | 0.00 | 92 | 1005.9 |
| 20260831010753 | 58 | 291 | 3.5 | 6.1 | 0.00 | 0.28 | 0.00 | 92 | 1005.8 |
| 20260831010252 | 58 | 287 | 1.7 | 7.0 | 0.00 | 0.28 | 0.00 | 92 | 1005.7 |
| 20260831005752 | 58 | 295 | 1.7 | 5.2 | 0.00 | 0.28 | 0.00 | 92 | 1005.7 |
| 20260831005253 | 58 | 282 | 0.9 | 6.1 | 0.00 | 0.28 | 0.00 | 92 | 1005.6 |
| 20260831004752 | 58 | 291 | 2.6 | 7.8 | 0.00 | 0.28 | 0.00 | 92 | 1005.6 |
| 20260831004253 | 58 | 279 | 1.7 | 7.0 | 0.00 | 0.28 | 0.00 | 92 | 1005.6 |
| 20260831003752 | 58 | 284 | 2.6 | 5.2 | 0.00 | 0.28 | 0.00 | 92 | 1005.5 |
| 20260831002253 | 58 | 288 | 1.7 | 11.3 | 0.00 | 0.28 | 0.00 | 92 | 1005.4 |
| 20260831001752 | 58 | 292 | 2.6 | 5.2 | 0.00 | 0.28 | 0.00 | 92 | 1005.4 |
| 20260831001253 | 58 | 276 | 2.6 | 6.1 | 0.00 | 0.28 | 0.00 | 92 | 1005.2 |
| 20260831000752 | 58 | 282 | 2.6 | 6.1 | 0.00 | 0.28 | 0.00 | 92 | 1005.1 |
| 20260831000252 | 58 | 291 | 2.6 | 5.2 | 0.00 | 0.28 | 0.00 | 92 | 1005.1 |
| 20260830235752 | 58 | 287 | 3.5 | 6.1 | 0.00 | 0.28 | 0.00 | 92 | 1005.0 |
| 20260830235254 | 58 | 287 | 2.6 | 6.1 | 0.00 | 0.28 | 0.00 | 92 | 1004.8 |
| 20260830234752 | 58 | 287 | 2.6 | 5.2 | 0.00 | 0.28 | 0.00 | 92 | 1004.8 |
| 20260830234253 | 58 | 298 | 2.6 | 6.1 | 0.00 | 0.28 | 0.00 | 91 | 1004.7 |
| 20260830233752 | 59 | 288 | 3.5 | 8.7 | 0.00 | 0.28 | 0.00 | 91 | 1004.6 |
| 20260830232753 | 59 | 278 | 2.6 | 10.4 | 0.00 | 0.28 | 0.00 | 92 | 1004.4 |
| 20260830232252 | 59 | 286 | 4.3 | 7.8 | 0.00 | 0.28 | 0.00 | 92 | 1004.5 |
| 20260830231752 | 59 | 285 | 2.6 | 5.2 | 0.00 | 0.28 | 0.00 | 92 | 1004.4 |
| 20260830231254 | 59 | 304 | 2.6 | 6.1 | 0.00 | 0.28 | 0.00 | 92 | 1004.4 |
| 20260830230814 | 58 | 289 | 4.3 | 7.8 | 0.00 | 0.28 | 0.00 | 92 | 1004.3 |
| 20260830230254 | 58 | 284 | 2.6 | 5.2 | 0.00 | 0.28 | 0.00 | 92 | 1004.2 |
| 20260830225753 | 58 | 278 | 2.6 | 7.8 | 0.00 | 0.28 | 0.28 | 92 | 1004.1 |
| 20260830225253 | 58 | 289 | 1.7 | 6.1 | 0.00 | 0.28 | 0.28 | 92 | 1004.2 |
| 20260830224753 | 58 | 278 | 1.7 | 6.1 | 0.00 | 0.28 | 0.28 | 93 | 1004.1 |
| 20260830224253 | 58 | 277 | 2.6 | 5.2 | 0.00 | 0.28 | 0.28 | 93 | 1004.0 |
| 20260830223754 | 58 | 283 | 1.7 | 5.2 | 0.00 | 0.28 | 0.28 | 94 | 1004.0 |
| 20260830222753 | 57 | 284 | 0.9 | 2.6 | 0.00 | 0.28 | 0.28 | 93 | 1003.8 |
| 20260830222253 | 57 | 273 | 0.9 | 1.7 | 0.00 | 0.28 | 0.28 | 93 | 1003.8 |
| 20260830221753 | 57 | 290 | 0.9 | 1.7 | 0.00 | 0.28 | 0.28 | 93 | 1003.7 |
| 20260830220754 | 57 | 267 | 0.9 | 1.7 | 0.00 | 0.28 | 0.28 | 93 | 1003.5 |
| 20260830220253 | 57 | 279 | 0.9 | 4.3 | 0.00 | 0.28 | 0.28 | 94 | 1003.5 |
| 20260830215753 | 57 | 284 | 1.7 | 5.2 | 0.00 | 0.28 | 0.28 | 94 | 1003.5 |
| 20260830215255 | 56 | 276 | 1.7 | 4.3 | 0.00 | 0.28 | 0.28 | 94 | 1003.4 |
| 20260830214753 | 56 | 273 | 0.9 | 2.6 | 0.00 | 0.28 | 0.28 | 94 | 1003.3 |
| 20260830214254 | 56 | 275 | 0.9 | 1.7 | 0.01 | 0.28 | 0.28 | 94 | 1003.2 |
| 20260830213253 | 56 | 282 | 0.9 | 2.6 | 0.01 | 0.28 | 0.28 | 94 | 1003.2 |
| 20260830212755 | 56 | 281 | 0.9 | 2.6 | 0.01 | 0.28 | 0.28 | 94 | 1003.1 |
| 20260830212254 | 56 | 285 | 0.9 | 2.6 | 0.01 | 0.28 | 0.28 | 94 | 1003.0 |
| 20260830211254 | 56 | 279 | 0.0 | 2.6 | 0.01 | 0.28 | 0.28 | 94 | 1002.9 |
| 20260830210755 | 56 | 279 | 0.9 | 1.7 | 0.01 | 0.28 | 0.28 | 94 | 1002.8 |
| 20260830210254 | 56 | 271 | 0.9 | 4.3 | 0.01 | 0.28 | 0.28 | 94 | 1002.7 |
| 20260830205754 | 56 | 286 | 0.9 | 4.3 | 0.01 | 0.28 | 0.28 | 94 | 1002.6 |
| 20260830205254 | 56 | 290 | 0.9 | 2.6 | 0.01 | 0.28 | 0.28 | 94 | 1002.5 |
| 20260830204755 | 56 | 285 | 0.9 | 2.6 | 0.01 | 0.28 | 0.28 | 93 | 1002.4 |
| 20260830204254 | 56 | 280 | 0.9 | 2.6 | 0.00 | 0.28 | 0.28 | 93 | 1002.4 |
| 20260830203753 | 57 | 276 | 0.9 | 1.7 | 0.00 | 0.28 | 0.28 | 93 | 1002.4 |
| 20260830202254 | 57 | 292 | 0.9 | 4.3 | 0.01 | 0.28 | 0.28 | 93 | 1002.2 |
| 20260830201754 | 57 | 311 | 1.7 | 5.2 | 0.01 | 0.28 | 0.28 | 92 | 1002.2 |
| 20260830201256 | 57 | 287 | 0.9 | 5.2 | 0.01 | 0.28 | 0.28 | 92 | 1002.2 |
| 20260830200754 | 57 | 306 | 1.7 | 5.2 | 0.01 | 0.28 | 0.28 | 92 | 1002.1 |
| 20260830200255 | 57 | 308 | 1.7 | 4.3 | 0.01 | 0.28 | 0.28 | 92 | 1002.1 |
| 20260830195254 | 57 | 297 | 0.0 | 1.7 | 0.01 | 0.28 | 0.28 | 93 | 1001.9 |
| 20260830194754 | 57 | 299 | 0.9 | 1.7 | 0.01 | 0.28 | 0.28 | 92 | 1001.8 |
| 20260830194254 | 57 | 298 | 0.9 | 4.3 | 0.01 | 0.28 | 0.28 | 92 | 1001.8 |
| 20260830193754 | 57 | 306 | 1.7 | 4.3 | 0.01 | 0.28 | 0.28 | 92 | 1001.7 |
| 20260830193254 | 57 | 283 | 0.9 | 5.2 | 0.01 | 0.28 | 0.28 | 92 | 1001.7 |
| 20260830192755 | 57 | 292 | 2.6 | 6.1 | 0.01 | 0.28 | 0.28 | 91 | 1001.7 |
| 20260830192255 | 57 | 288 | 2.6 | 5.2 | 0.01 | 0.27 | 0.27 | 91 | 1001.6 |
| 20260830191754 | 57 | 290 | 3.5 | 6.1 | 0.01 | 0.27 | 0.27 | 90 | 1001.6 |
| 20260830190755 | 58 | 287 | 3.5 | 7.8 | 0.01 | 0.27 | 0.27 | 90 | 1001.5 |
| 20260830190254 | 59 | 280 | 4.3 | 10.4 | 0.01 | 0.27 | 0.27 | 91 | 1001.4 |
| 20260830185756 | 60 | 289 | 0.9 | 1.7 | 0.01 | 0.27 | 0.27 | 93 | 1001.3 |
| 20260830185256 | 60 | 168 | 0.0 | 0.0 | 0.01 | 0.27 | 0.27 | 93 | 1001.2 |
| 20260830184755 | 60 | 149 | 0.0 | 0.0 | 0.01 | 0.27 | 0.27 | 93 | 1001.2 |
| 20260830184254 | 60 | 150 | 0.0 | 0.0 | 0.01 | 0.27 | 0.27 | 93 | 1001.1 |
| 20260830183755 | 60 | 149 | 0.0 | 0.0 | 0.01 | 0.27 | 0.27 | 93 | 1001.1 |
| 20260830183255 | 60 | 150 | 0.0 | 0.0 | 0.01 | 0.27 | 0.27 | 93 | 1001.1 |
| 20260830182255 | 60 | 139 | 0.0 | 0.9 | 0.00 | 0.26 | 0.26 | 92 | 1001.0 |
| 20260830181755 | 60 | 136 | 0.0 | 0.0 | 0.01 | 0.26 | 0.26 | 92 | 1001.0 |
| 20260830181255 | 60 | 150 | 0.0 | 0.0 | 0.01 | 0.26 | 0.26 | 92 | 1001.0 |
| 20260830180756 | 60 | 150 | 0.0 | 0.0 | 0.01 | 0.26 | 0.26 | 92 | 1001.0 |
| 20260830180255 | 60 | 148 | 0.0 | 0.0 | 0.01 | 0.26 | 0.26 | 92 | 1001.0 |
| 20260830175755 | 60 | 152 | 0.0 | 0.9 | 0.01 | 0.26 | 0.26 | 92 | 1000.9 |
| 20260830175255 | 60 | 148 | 0.0 | 0.9 | 0.02 | 0.26 | 0.26 | 92 | 1000.9 |
| 20260830174255 | 60 | 287 | 0.0 | 0.0 | 0.02 | 0.26 | 0.26 | 91 | 1000.9 |
| 20260830173257 | 60 | 287 | 0.0 | 0.9 | 0.02 | 0.27 | 0.26 | 91 | 1000.9 |
| 20260830172755 | 60 | 283 | 0.0 | 0.9 | 0.02 | 0.27 | 0.26 | 92 | 1000.9 |
| 20260830172257 | 60 | 280 | 0.0 | 0.0 | 0.02 | 0.27 | 0.26 | 92 | 1000.8 |
| 20260830171257 | 60 | 280 | 0.0 | 0.9 | 0.01 | 0.26 | 0.25 | 91 | 1000.9 |
| 20260830165257 | 60 | 291 | 0.9 | 1.7 | 0.01 | 0.25 | 0.24 | 91 | 1000.9 |
| 20260830164755 | 60 | 287 | 0.9 | 2.6 | 0.02 | 0.25 | 0.24 | 91 | 1000.9 |
| 20260830164257 | 60 | 285 | 0.9 | 1.7 | 0.02 | 0.25 | 0.24 | 91 | 1000.8 |
| 20260830163257 | 60 | 310 | 0.0 | 2.6 | 0.02 | 0.25 | 0.24 | 92 | 1000.8 |
| 20260830162756 | 60 | 285 | 0.0 | 0.9 | 0.02 | 0.25 | 0.24 | 92 | 1000.8 |
| 20260830162256 | 60 | 294 | 0.9 | 1.7 | 0.03 | 0.25 | 0.24 | 91 | 1000.9 |
| 20260830161756 | 60 | 267 | 0.0 | 1.7 | 0.03 | 0.25 | 0.24 | 92 | 1000.9 |
| 20260830161257 | 60 | 310 | 0.0 | 0.9 | 0.03 | 0.25 | 0.24 | 92 | 1000.9 |
| 20260830160756 | 60 | 284 | 0.0 | 0.9 | 0.03 | 0.25 | 0.24 | 91 | 1000.9 |
| 20260830160256 | 60 | 305 | 0.0 | 1.7 | 0.03 | 0.25 | 0.24 | 91 | 1000.9 |
| 20260830155757 | 60 | 299 | 0.0 | 2.6 | 0.02 | 0.24 | 0.24 | 90 | 1000.8 |
| 20260830155257 | 60 | 304 | 0.0 | 2.6 | 0.02 | 0.24 | 0.24 | 90 | 1000.8 |
| 20260830154757 | 60 | 247 | 0.9 | 1.7 | 0.02 | 0.24 | 0.23 | 89 | 1000.8 |
| 20260830154257 | 61 | 309 | 0.0 | 1.7 | 0.02 | 0.24 | 0.23 | 89 | 1000.8 |
| 20260830153758 | 61 | 275 | 1.7 | 4.3 | 0.01 | 0.23 | 0.22 | 88 | 1000.8 |
| 20260830153256 | 61 | 300 | 0.9 | 4.3 | 0.01 | 0.23 | 0.22 | 88 | 1000.8 |
| 20260830152756 | 61 | 306 | 0.9 | 4.3 | 0.01 | 0.23 | 0.22 | 86 | 1000.8 |
| 20260830152257 | 62 | 324 | 3.5 | 7.0 | 0.00 | 0.22 | 0.21 | 84 | 1000.7 |
| 20260830151757 | 62 | 285 | 3.5 | 8.7 | 0.00 | 0.22 | 0.21 | 83 | 1000.7 |
| 20260830151256 | 63 | 294 | 4.3 | 7.0 | 0.00 | 0.22 | 0.21 | 83 | 1000.7 |
| 20260830150758 | 63 | 295 | 2.6 | 7.0 | 0.00 | 0.23 | 0.21 | 82 | 1000.8 |
| 20260830150256 | 64 | 301 | 2.6 | 5.2 | 0.00 | 0.24 | 0.21 | 83 | 1000.7 |
| 20260830145757 | 64 | 343 | 2.6 | 7.0 | 0.00 | 0.27 | 0.21 | 82 | 1000.7 |
| 20260830145257 | 64 | 283 | 0.9 | 7.0 | 0.00 | 0.27 | 0.21 | 81 | 1000.7 |
| 20260830144758 | 65 | 326 | 1.7 | 6.1 | 0.00 | 0.27 | 0.21 | 81 | 1000.6 |
| 20260830144256 | 65 | 313 | 3.5 | 7.0 | 0.00 | 0.27 | 0.21 | 79 | 1000.6 |
| 20260830143757 | 66 | 299 | 1.7 | 7.0 | 0.00 | 0.27 | 0.21 | 78 | 1000.7 |
| 20260830143257 | 66 | 296 | 2.6 | 7.0 | 0.00 | 0.27 | 0.21 | 77 | 1000.7 |
| 20260830142758 | 66 | 305 | 2.6 | 8.7 | 0.00 | 0.27 | 0.21 | 77 | 1000.6 |
| 20260830142257 | 67 | 244 | 1.7 | 10.4 | 0.00 | 0.27 | 0.21 | 77 | 1000.6 |
| 20260830141759 | 67 | 327 | 2.6 | 7.0 | 0.00 | 0.27 | 0.21 | 76 | 1000.6 |
| 20260830141257 | 67 | 318 | 4.3 | 7.8 | 0.00 | 0.27 | 0.21 | 75 | 1000.7 |
| 20260830135757 | 68 | 291 | 2.6 | 5.2 | 0.00 | 0.27 | 0.21 | 76 | 1000.6 |
| 20260830135258 | 68 | 339 | 3.5 | 10.4 | 0.00 | 0.27 | 0.21 | 76 | 1000.6 |
| 20260830134759 | 67 | 201 | 3.5 | 10.4 | 0.00 | 0.28 | 0.21 | 78 | 1000.6 |
| 20260830134257 | 68 | 320 | 4.3 | 10.4 | 0.00 | 0.28 | 0.21 | 75 | 1000.7 |
| 20260830133757 | 68 | 305 | 4.3 | 8.7 | 0.00 | 0.28 | 0.21 | 74 | 1000.7 |
| 20260830133257 | 68 | 328 | 3.5 | 6.1 | 0.00 | 0.28 | 0.21 | 74 | 1000.7 |
| 20260830132757 | 68 | 290 | 2.6 | 7.0 | 0.00 | 0.28 | 0.21 | 74 | 1000.7 |
| 20260830132258 | 68 | 335 | 4.3 | 8.7 | 0.00 | 0.28 | 0.21 | 74 | 1000.7 |
| 20260830131757 | 68 | 213 | 3.5 | 7.8 | 0.00 | 0.28 | 0.21 | 72 | 1000.8 |
| 20260830130757 | 69 | 277 | 2.6 | 8.7 | 0.00 | 0.28 | 0.21 | 74 | 1000.7 |
| 20260830130257 | 68 | 325 | 2.6 | 11.3 | 0.00 | 0.28 | 0.21 | 75 | 1000.7 |
| 20260830125757 | 68 | 168 | 2.6 | 10.4 | 0.00 | 0.28 | 0.21 | 76 | 1000.8 |
| 20260830124757 | 68 | 229 | 4.3 | 7.8 | 0.00 | 0.28 | 0.21 | 77 | 1001.0 |
| 20260830124259 | 68 | 59 | 2.6 | 7.8 | 0.00 | 0.28 | 0.21 | 79 | 1001.0 |
| 20260830123758 | 68 | 298 | 3.5 | 8.7 | 0.00 | 0.28 | 0.21 | 78 | 1001.0 |
| 20260830123259 | 68 | 8 | 2.6 | 5.2 | 0.00 | 0.28 | 0.21 | 80 | 1001.0 |
| 20260830122757 | 67 | 304 | 4.3 | 12.2 | 0.00 | 0.28 | 0.21 | 80 | 1001.0 |
| 20260830122258 | 67 | 284 | 5.2 | 11.3 | 0.00 | 0.28 | 0.21 | 78 | 1001.1 |